DLH161 EDXW-EDDF

Flight info

Callsign DLH161
Flight time 1h 6m
Altitude 35000
Route OLDIP1B OLDIP DCT BADOS DCT OMWEG Y348 ELSOB DCT RIMET T157 KERAX KERAX5A
Aircraft A319/M-SDE3FGHIRWY/LB1

Departure

Time 2026-05-06 16:44
Airport Westerland Sylt Airport (EDXW)

Arrival

Time 2026-05-06 17:50
Airport Frankfurt Main Airport (EDDF)
Time Latitude Longitude Altitude Speed Heading
2026-05-06 15:56 54.91352 8.33119 58 ft 0 kts 271°
2026-05-06 16:37 54.91356 8.33115 58 ft 1 kts 311°
2026-05-06 16:37 54.91361 8.33120 58 ft 1 kts 16°
2026-05-06 16:37 54.91360 8.33150 58 ft 4 kts 95°
2026-05-06 16:37 54.91340 8.33194 55 ft 5 kts 143°
2026-05-06 16:38 54.91302 8.33206 56 ft 7 kts 194°
2026-05-06 16:38 54.91242 8.33180 58 ft 10 kts 182°
2026-05-06 16:38 54.91157 8.33181 58 ft 15 kts 179°
2026-05-06 16:38 54.91046 8.33170 57 ft 16 kts 192°
2026-05-06 16:39 54.90964 8.33107 56 ft 10 kts 192°
2026-05-06 16:39 54.90898 8.33157 58 ft 11 kts 153°
2026-05-06 16:39 54.90807 8.33208 58 ft 16 kts 172°
2026-05-06 16:39 54.90690 8.33228 58 ft 17 kts 174°
2026-05-06 16:40 54.90569 8.33248 58 ft 18 kts 174°
2026-05-06 16:40 54.90450 8.33308 57 ft 18 kts 153°
2026-05-06 16:40 54.90350 8.33441 55 ft 18 kts 133°
2026-05-06 16:40 54.90279 8.33626 52 ft 19 kts 113°
2026-05-06 16:41 54.90250 8.33849 58 ft 19 kts 99°
2026-05-06 16:41 54.90236 8.34085 58 ft 20 kts 90°
2026-05-06 16:41 54.90256 8.34328 58 ft 21 kts 79°
2026-05-06 16:41 54.90281 8.34580 58 ft 22 kts 80°
2026-05-06 16:42 54.90308 8.34842 58 ft 22 kts 79°
2026-05-06 16:42 54.90332 8.35049 56 ft 13 kts 68°
2026-05-06 16:42 54.90382 8.35174 55 ft 10 kts 53°
2026-05-06 16:42 54.90421 8.35166 57 ft 6 kts 314°
2026-05-06 16:43 54.90435 8.35149 58 ft 0 kts 326°
2026-05-06 16:43 54.90651 8.34884 55 ft 79 kts 324°
2026-05-06 16:43 54.91285 8.34100 154 ft 132 kts 328°
2026-05-06 16:44 54.92032 8.33197 912 ft 131 kts 329°
2026-05-06 16:44 54.92814 8.32262 1466 ft 147 kts 328°
2026-05-06 16:44 54.93709 8.31148 1973 ft 170 kts 327°
2026-05-06 16:44 54.94733 8.29871 2452 ft 192 kts 328°
2026-05-06 16:45 54.95879 8.28449 2928 ft 214 kts 328°
2026-05-06 16:45 54.97119 8.26909 3777 ft 218 kts 327°
2026-05-06 16:45 54.98259 8.25104 4707 ft 228 kts 303°
2026-05-06 16:45 54.98578 8.22447 5661 ft 229 kts 259°
2026-05-06 16:46 54.97929 8.19922 6636 ft 228 kts 235°
2026-05-06 16:46 54.96981 8.17747 7654 ft 225 kts 232°
2026-05-06 16:46 54.95972 8.15663 8595 ft 228 kts 225°
2026-05-06 16:46 54.94624 8.14126 9452 ft 238 kts 204°
2026-05-06 16:47 54.92977 8.13572 10298 ft 249 kts 182°
2026-05-06 16:47 54.91221 8.14298 10821 ft 276 kts 155°
2026-05-06 16:47 54.89557 8.16233 11314 ft 299 kts 148°
2026-05-06 16:47 54.87790 8.18384 11674 ft 323 kts 148°
2026-05-06 16:48 54.85873 8.20680 12101 ft 343 kts 148°
2026-05-06 16:48 54.83882 8.23046 12849 ft 350 kts 148°
2026-05-06 16:48 54.81846 8.25451 13680 ft 356 kts 149°
2026-05-06 16:48 54.79787 8.27875 14407 ft 360 kts 149°
2026-05-06 16:49 54.77702 8.30329 15139 ft 365 kts 149°
2026-05-06 16:49 54.75589 8.32811 15867 ft 369 kts 149°
2026-05-06 16:49 54.73449 8.35319 16581 ft 374 kts 149°
2026-05-06 16:49 54.71281 8.37853 17295 ft 378 kts 150°
2026-05-06 16:50 54.69087 8.40414 18009 ft 383 kts 150°
2026-05-06 16:50 54.66863 8.43002 18644 ft 387 kts 150°
2026-05-06 16:50 54.64617 8.45615 19273 ft 391 kts 150°
2026-05-06 16:50 54.63119 8.47355 19701 ft 393 kts 150°
2026-05-06 16:51 54.60067 8.50904 20591 ft 397 kts 150°
2026-05-06 16:51 54.57773 8.53570 21239 ft 400 kts 150°
2026-05-06 16:51 54.55483 8.56223 21886 ft 403 kts 151°
2026-05-06 16:51 54.53153 8.58921 22533 ft 406 kts 151°
2026-05-06 16:52 54.50796 8.61646 23171 ft 409 kts 151°
2026-05-06 16:52 54.48432 8.64377 23723 ft 412 kts 151°
2026-05-06 16:52 54.46049 8.67122 24223 ft 414 kts 151°
2026-05-06 16:52 54.43644 8.69883 24725 ft 417 kts 151°
2026-05-06 16:53 54.41226 8.72658 25222 ft 419 kts 151°
2026-05-06 16:53 54.38789 8.75453 25706 ft 422 kts 152°
2026-05-06 16:53 54.36344 8.78254 26183 ft 424 kts 152°
2026-05-06 16:53 54.33881 8.81070 26660 ft 427 kts 152°
2026-05-06 16:54 54.31404 8.83903 27142 ft 429 kts 152°
2026-05-06 16:54 54.28913 8.86747 27622 ft 432 kts 152°
2026-05-06 16:54 54.26409 8.89602 28091 ft 434 kts 152°
2026-05-06 16:54 54.23886 8.92471 28558 ft 436 kts 152°
2026-05-06 16:55 54.21348 8.95347 29011 ft 439 kts 152°
2026-05-06 16:55 54.18797 8.98231 29452 ft 441 kts 152°
2026-05-06 16:55 54.16234 9.01127 29886 ft 443 kts 152°
2026-05-06 16:55 54.13651 9.04045 30262 ft 445 kts 152°
2026-05-06 16:56 54.11061 9.06973 30623 ft 447 kts 152°
2026-05-06 16:56 54.08459 9.09915 30967 ft 450 kts 153°
2026-05-06 16:56 54.05846 9.12863 31302 ft 452 kts 153°
2026-05-06 16:56 54.03218 9.15818 31656 ft 453 kts 153°
2026-05-06 16:57 54.00590 9.18763 32134 ft 452 kts 153°
2026-05-06 16:57 53.97971 9.21696 32610 ft 450 kts 153°
2026-05-06 16:57 53.95357 9.24619 33092 ft 449 kts 153°
2026-05-06 16:57 53.92747 9.27531 33560 ft 448 kts 153°
2026-05-06 16:58 53.90144 9.30435 34006 ft 447 kts 153°
2026-05-06 16:58 53.87543 9.33333 34390 ft 447 kts 153°
2026-05-06 16:58 53.84929 9.36240 34753 ft 448 kts 153°
2026-05-06 16:58 53.82433 9.39011 34864 ft 446 kts 153°
2026-05-06 16:59 53.79848 9.41880 34887 ft 442 kts 153°
2026-05-06 16:59 53.74689 9.47581 34889 ft 439 kts 153°
2026-05-06 17:00 53.69614 9.53169 34889 ft 438 kts 153°
2026-05-06 17:00 53.64279 9.57844 34891 ft 425 kts 168°
2026-05-06 17:01 53.58580 9.59901 34891 ft 418 kts 176°
2026-05-06 17:01 53.52860 9.61563 34887 ft 417 kts 176°
2026-05-06 17:02 53.47135 9.63222 34888 ft 416 kts 176°
2026-05-06 17:02 53.41427 9.64862 34880 ft 415 kts 176°
2026-05-06 17:03 53.36698 9.66227 34883 ft 415 kts 176°
2026-05-06 17:03 53.30057 9.68132 34899 ft 414 kts 176°
2026-05-06 17:04 53.25345 9.69475 34885 ft 413 kts 176°
2026-05-06 17:04 53.19684 9.71086 34886 ft 412 kts 176°
2026-05-06 17:05 53.13119 9.72959 34864 ft 412 kts 176°
2026-05-06 17:05 53.08399 9.74301 34867 ft 411 kts 176°
2026-05-06 17:06 53.02745 9.75899 34849 ft 411 kts 176°
2026-05-06 17:06 52.97113 9.77490 34844 ft 411 kts 176°
2026-05-06 17:07 52.91484 9.79082 34833 ft 411 kts 176°
2026-05-06 17:07 52.85860 9.80667 34838 ft 411 kts 176°
2026-05-06 17:08 52.80211 9.82239 34834 ft 411 kts 176°
2026-05-06 17:08 52.74554 9.83815 34833 ft 410 kts 176°
2026-05-06 17:09 52.68963 9.85376 34823 ft 411 kts 175°
2026-05-06 17:09 52.63315 9.86955 34823 ft 411 kts 175°
2026-05-06 17:10 52.57656 9.88508 34825 ft 411 kts 175°
2026-05-06 17:10 52.52053 9.90023 34825 ft 411 kts 175°
2026-05-06 17:11 52.46379 9.91577 34818 ft 411 kts 175°
2026-05-06 17:11 52.40757 9.93128 34824 ft 411 kts 175°
2026-05-06 17:12 52.35134 9.94674 34818 ft 410 kts 175°
2026-05-06 17:12 52.29510 9.96212 34816 ft 410 kts 175°
2026-05-06 17:13 52.23909 9.97742 34811 ft 409 kts 175°
2026-05-06 17:13 52.18294 9.99279 34804 ft 409 kts 175°
2026-05-06 17:14 52.12654 10.00810 34803 ft 409 kts 174°
2026-05-06 17:14 52.07043 10.02328 34806 ft 409 kts 174°
2026-05-06 17:15 52.01433 10.03839 34797 ft 409 kts 174°
2026-05-06 17:15 51.95850 10.05347 34798 ft 409 kts 174°
2026-05-06 17:16 51.90237 10.06859 34792 ft 409 kts 174°
2026-05-06 17:16 51.84603 10.08376 34286 ft 411 kts 174°
2026-05-06 17:16 51.81782 10.09133 33802 ft 409 kts 174°
2026-05-06 17:17 51.78975 10.09882 33241 ft 409 kts 174°
2026-05-06 17:17 51.76171 10.10627 32707 ft 410 kts 174°
2026-05-06 17:17 51.73342 10.11377 32173 ft 412 kts 174°
2026-05-06 17:17 51.70511 10.12125 31648 ft 413 kts 174°
2026-05-06 17:18 51.67685 10.12874 31130 ft 411 kts 174°
2026-05-06 17:18 51.64869 10.13622 30626 ft 409 kts 174°
2026-05-06 17:18 51.62069 10.14363 30136 ft 406 kts 174°
2026-05-06 17:18 51.59289 10.15097 29608 ft 404 kts 173°
2026-05-06 17:19 51.56527 10.15832 29043 ft 400 kts 173°
2026-05-06 17:19 51.53788 10.16564 28485 ft 397 kts 173°
2026-05-06 17:19 51.51069 10.17287 27937 ft 394 kts 173°
2026-05-06 17:19 51.48405 10.17990 27405 ft 391 kts 173°
2026-05-06 17:20 51.45725 10.18697 26877 ft 388 kts 173°
2026-05-06 17:20 51.43068 10.19397 26363 ft 386 kts 173°
2026-05-06 17:20 51.40428 10.20095 25861 ft 383 kts 173°
2026-05-06 17:20 51.37803 10.20784 25362 ft 381 kts 173°
2026-05-06 17:21 51.35193 10.21461 25026 ft 380 kts 173°
2026-05-06 17:21 51.32561 10.21896 24821 ft 380 kts 181°
2026-05-06 17:21 51.29924 10.21850 24779 ft 380 kts 182°
2026-05-06 17:21 51.27281 10.21700 24783 ft 380 kts 189°
2026-05-06 17:22 51.24751 10.20577 24713 ft 378 kts 204°
2026-05-06 17:22 51.22408 10.18678 24291 ft 376 kts 208°
2026-05-06 17:22 51.20114 10.16707 23871 ft 374 kts 209°
2026-05-06 17:22 51.17836 10.14706 23452 ft 372 kts 209°
2026-05-06 17:23 51.15578 10.12709 22963 ft 371 kts 209°
2026-05-06 17:23 51.13329 10.10732 22486 ft 368 kts 209°
2026-05-06 17:23 51.11082 10.08773 22001 ft 367 kts 208°
2026-05-06 17:23 51.08851 10.06841 21534 ft 365 kts 208°
2026-05-06 17:24 51.06624 10.04920 21066 ft 363 kts 208°
2026-05-06 17:24 51.04410 10.03016 20610 ft 361 kts 208°
2026-05-06 17:24 51.02204 10.01121 20152 ft 359 kts 208°
2026-05-06 17:24 51.00016 9.99239 19709 ft 357 kts 208°
2026-05-06 17:25 50.97834 9.97363 19272 ft 356 kts 208°
2026-05-06 17:25 50.95727 9.95560 18847 ft 354 kts 208°
2026-05-06 17:25 50.93495 9.93654 18412 ft 353 kts 208°
2026-05-06 17:25 50.91336 9.91816 18107 ft 351 kts 209°
2026-05-06 17:26 50.89220 9.90015 17687 ft 348 kts 209°
2026-05-06 17:26 50.87066 9.88178 17248 ft 346 kts 209°
2026-05-06 17:26 50.84977 9.86395 16828 ft 344 kts 209°
2026-05-06 17:26 50.82874 9.84601 16408 ft 342 kts 209°
2026-05-06 17:27 50.80780 9.82816 15990 ft 341 kts 209°
2026-05-06 17:27 50.78701 9.81046 15594 ft 339 kts 209°
2026-05-06 17:27 50.76628 9.79283 15191 ft 337 kts 209°
2026-05-06 17:27 50.74572 9.77538 14795 ft 335 kts 209°
2026-05-06 17:28 50.72523 9.75812 14407 ft 333 kts 208°
2026-05-06 17:28 50.70443 9.74209 14017 ft 332 kts 206°
2026-05-06 17:28 50.68347 9.72713 13636 ft 330 kts 205°
2026-05-06 17:28 50.66247 9.71267 13212 ft 328 kts 204°
2026-05-06 17:29 50.64160 9.69840 12793 ft 326 kts 204°
2026-05-06 17:29 50.62083 9.68413 12394 ft 324 kts 204°
2026-05-06 17:29 50.60021 9.66987 12090 ft 323 kts 205°
2026-05-06 17:29 50.57978 9.65559 11779 ft 321 kts 205°
2026-05-06 17:30 50.55940 9.64124 11474 ft 320 kts 205°
2026-05-06 17:30 50.53972 9.62512 11165 ft 318 kts 216°
2026-05-06 17:30 50.52380 9.60140 10844 ft 316 kts 227°
2026-05-06 17:30 50.50891 9.57608 10524 ft 314 kts 227°
2026-05-06 17:31 50.49428 9.55103 10291 ft 306 kts 228°
2026-05-06 17:31 50.48002 9.52653 10089 ft 302 kts 228°
2026-05-06 17:31 50.46590 9.50225 9915 ft 300 kts 228°
2026-05-06 17:31 50.45186 9.47810 9786 ft 299 kts 228°
2026-05-06 17:32 50.43780 9.45401 9798 ft 299 kts 228°
2026-05-06 17:32 50.42374 9.43000 9801 ft 299 kts 228°
2026-05-06 17:32 50.40970 9.40602 9795 ft 299 kts 227°
2026-05-06 17:32 50.39581 9.38233 9797 ft 287 kts 228°
2026-05-06 17:33 50.38249 9.35967 9580 ft 281 kts 227°
2026-05-06 17:33 50.36942 9.33747 9206 ft 273 kts 227°
2026-05-06 17:33 50.35695 9.31630 8895 ft 262 kts 228°
2026-05-06 17:33 50.34489 9.29581 8628 ft 250 kts 228°
2026-05-06 17:34 50.33337 9.27625 8369 ft 240 kts 228°
2026-05-06 17:34 50.32210 9.25718 8117 ft 237 kts 228°
2026-05-06 17:34 50.31094 9.23831 7864 ft 235 kts 228°
2026-05-06 17:34 50.29986 9.21958 7609 ft 234 kts 228°
2026-05-06 17:35 50.28884 9.20096 7358 ft 233 kts 228°
2026-05-06 17:35 50.27787 9.18241 7104 ft 232 kts 228°
2026-05-06 17:35 50.26693 9.16393 6901 ft 231 kts 229°
2026-05-06 17:36 50.24518 9.12716 6510 ft 229 kts 229°
2026-05-06 17:36 50.23435 9.10887 6312 ft 229 kts 229°
2026-05-06 17:36 50.22358 9.09071 6164 ft 228 kts 228°
2026-05-06 17:36 50.21282 9.07260 6007 ft 227 kts 228°
2026-05-06 17:37 50.20216 9.05468 5844 ft 221 kts 228°
2026-05-06 17:37 50.19189 9.03744 5694 ft 212 kts 228°
2026-05-06 17:37 50.18204 9.02086 5526 ft 206 kts 228°
2026-05-06 17:37 50.17236 9.00454 5389 ft 204 kts 228°
2026-05-06 17:38 50.16271 8.98831 5237 ft 203 kts 228°
2026-05-06 17:38 50.15313 8.97220 5107 ft 203 kts 228°
2026-05-06 17:38 50.14536 8.95434 5018 ft 202 kts 248°
2026-05-06 17:38 50.14055 8.93345 5004 ft 202 kts 250°
2026-05-06 17:39 50.13574 8.91283 5004 ft 203 kts 250°
2026-05-06 17:39 50.13088 8.89219 5002 ft 203 kts 250°
2026-05-06 17:39 50.12607 8.87184 5008 ft 203 kts 249°
2026-05-06 17:39 50.12122 8.85125 5009 ft 202 kts 249°
2026-05-06 17:40 50.11635 8.83066 5008 ft 203 kts 249°
2026-05-06 17:40 50.11149 8.81001 5003 ft 202 kts 250°
2026-05-06 17:40 50.11002 8.78850 5005 ft 205 kts 281°
2026-05-06 17:40 50.11722 8.76941 5010 ft 211 kts 317°
2026-05-06 17:41 50.13076 8.76034 5006 ft 219 kts 353°
2026-05-06 17:41 50.14570 8.76515 5006 ft 225 kts 28°
2026-05-06 17:41 50.15806 8.78038 5009 ft 228 kts 42°
2026-05-06 17:41 50.16953 8.79749 5008 ft 228 kts 44°
2026-05-06 17:42 50.18091 8.81492 5004 ft 229 kts 44°
2026-05-06 17:42 50.19162 8.83328 4997 ft 230 kts 59°
2026-05-06 17:42 50.19777 8.85613 4998 ft 229 kts 72°
2026-05-06 17:42 50.20238 8.88001 5001 ft 229 kts 75°
2026-05-06 17:43 50.20484 8.90433 5000 ft 227 kts 98°
2026-05-06 17:43 50.19911 8.92657 4998 ft 221 kts 134°
2026-05-06 17:43 50.18672 8.93932 5003 ft 212 kts 170°
2026-05-06 17:43 50.17250 8.93830 5006 ft 205 kts 206°
2026-05-06 17:44 50.16074 8.92620 5003 ft 203 kts 222°
2026-05-06 17:44 50.15014 8.91201 5007 ft 203 kts 224°
2026-05-06 17:44 50.13959 8.89731 5012 ft 204 kts 224°
2026-05-06 17:44 50.12952 8.88206 4999 ft 197 kts 235°
2026-05-06 17:45 50.12397 8.86345 5048 ft 187 kts 250°
2026-05-06 17:45 50.11949 8.84443 4832 ft 186 kts 250°
2026-05-06 17:45 50.11504 8.82554 4592 ft 185 kts 250°
2026-05-06 17:45 50.11061 8.80677 4324 ft 184 kts 250°
2026-05-06 17:46 50.10619 8.78805 4054 ft 184 kts 250°
2026-05-06 17:46 50.10178 8.76939 3794 ft 183 kts 250°
2026-05-06 17:46 50.09740 8.75082 3531 ft 182 kts 251°
2026-05-06 17:46 50.09300 8.73224 3270 ft 183 kts 251°
2026-05-06 17:47 50.08862 8.71373 3000 ft 182 kts 251°
2026-05-06 17:47 50.08426 8.69532 2745 ft 180 kts 252°
2026-05-06 17:47 50.07994 8.67714 2479 ft 176 kts 252°
2026-05-06 17:47 50.07583 8.65982 2228 ft 166 kts 253°
2026-05-06 17:48 50.07190 8.64331 2004 ft 158 kts 253°
2026-05-06 17:48 50.06821 8.62780 1778 ft 147 kts 253°
2026-05-06 17:48 50.06474 8.61319 1570 ft 144 kts 255°
2026-05-06 17:48 50.06128 8.59864 1356 ft 141 kts 254°
2026-05-06 17:49 50.05793 8.58438 1119 ft 139 kts 254°
2026-05-06 17:49 50.05456 8.57049 927 ft 135 kts 253°
2026-05-06 17:49 50.05128 8.55688 716 ft 133 kts 253°
2026-05-06 17:49 50.04923 8.54799 584 ft 130 kts 255°
2026-05-06 17:50 50.04612 8.53497 413 ft 127 kts 253°
2026-05-06 17:50 50.04322 8.52274 345 ft 106 kts 249°
2026-05-06 17:50 50.04168 8.51669 333 ft 31 kts 237°
2026-05-06 17:50 50.04032 8.51441 331 ft 16 kts 221°
2026-05-06 17:51 50.03987 8.51381 330 ft 7 kts 219°
2026-05-06 17:51 50.03971 8.51361 333 ft 0 kts 218°
2026-05-06 17:51 50.03965 8.51357 332 ft 2 kts 208°
2026-05-06 17:51 50.03951 8.51353 335 ft 2 kts 183°
2026-05-06 17:52 50.03931 8.51363 336 ft 4 kts 155°
2026-05-06 17:52 50.03909 8.51405 331 ft 8 kts 111°
2026-05-06 17:52 50.03929 8.51539 334 ft 17 kts 70°
2026-05-06 17:52 50.03972 8.51725 334 ft 19 kts 69°
2026-05-06 17:53 50.04023 8.51933 336 ft 23 kts 69°
2026-05-06 17:53 50.04083 8.52188 350 ft 26 kts 69°
2026-05-06 17:53 50.04145 8.52442 352 ft 25 kts 69°
2026-05-06 17:53 50.04203 8.52687 353 ft 24 kts 69°
2026-05-06 17:54 50.04260 8.52924 355 ft 23 kts 69°
2026-05-06 17:54 50.04315 8.53154 362 ft 21 kts 69°
2026-05-06 17:54 50.04363 8.53356 371 ft 20 kts 70°
2026-05-06 17:54 50.04399 8.53573 375 ft 23 kts 83°
2026-05-06 17:55 50.04417 8.53834 375 ft 25 kts 84°
2026-05-06 17:55 50.04434 8.54107 375 ft 26 kts 84°
2026-05-06 17:55 50.04448 8.54308 375 ft 10 kts 83°
2026-05-06 17:55 50.04453 8.54420 371 ft 13 kts 89°
2026-05-06 17:56 50.04433 8.54582 367 ft 17 kts 112°
2026-05-06 17:56 50.04350 8.54735 359 ft 20 kts 144°
2026-05-06 17:56 50.04203 8.54834 356 ft 25 kts 160°
2026-05-06 17:56 50.04038 8.54928 356 ft 26 kts 159°
2026-05-06 17:57 50.03881 8.55020 352 ft 18 kts 160°
2026-05-06 17:57 50.03854 8.55136 356 ft 13 kts 68°
2026-05-06 17:57 50.03893 8.55302 349 ft 20 kts 70°
2026-05-06 17:57 50.03948 8.55533 352 ft 24 kts 69°
2026-05-06 17:58 50.04008 8.55781 351 ft 25 kts 70°
2026-05-06 17:58 50.04057 8.55959 353 ft 10 kts 39°
2026-05-06 17:58 50.04125 8.55952 355 ft 11 kts 340°
2026-05-06 17:58 50.04213 8.55922 353 ft 14 kts 13°
2026-05-06 17:59 50.04304 8.55950 358 ft 14 kts 348°
2026-05-06 17:59 50.04396 8.55909 358 ft 14 kts 353°
2026-05-06 17:59 50.04494 8.55941 356 ft 15 kts 18°
2026-05-06 17:59 50.04575 8.56049 363 ft 17 kts 69°
2026-05-06 18:00 50.04616 8.56225 359 ft 18 kts 70°
2026-05-06 18:00 50.04642 8.56336 356 ft 8 kts 69°
2026-05-06 18:00 50.04688 8.56343 359 ft 8 kts 325°
2026-05-06 18:00 50.04726 8.56294 356 ft 7 kts 321°
2026-05-06 18:01 50.04730 8.56288 359 ft 0 kts 320°